Guantanamo Bay NAS, Cuba

12:39 PM CST on November 17, 2017 (GMT -0500)
Guantanamo Bay Naval Air Station

Weather History for MUGM - November, 2017

Change the Weather History Date:

Tuesday, November 14, 2017

  Actual Average Record
Temperature  
Mean Temperature 77 °F -  
Max Temperature 81 °F 84 °F 102 °F (1997)
Min Temperature 73 °F 69 °F 37 °F (1996)
Cooling Degree Days 12    
Growing Degree Days 27 (Base 50)    
Moisture  
Dew Point 75 °F    
Average Humidity 97    
Maximum Humidity 100    
Minimum Humidity 87    
Precipitation  
Precipitation 1.33 in - - ()
Sea Level Pressure  
Sea Level Pressure 29.82 in    
Wind  
Wind Speed 6 mph ()    
Max Wind Speed 20 mph    
Max Gust Speed 30 mph    
Visibility 6.2 miles    
Events Rain    
Averages and records for this station are not official NWS values.
T = Trace of Precipitation, MM = Missing Value Source: Averaged Metar Reports

Daily Weather History Graph

Daily Weather History Graph

Search for Another Location

Airport or City:

Trip Planner

Search our weather history database for the weather conditions in past years. The results will help you decide how hot, cold, wet, or windy it might be!

Date:

Astronomy

Nov. 14, 2017 Rise Set
Actual Time 6:09 AM CST 5:21 PM CST
Civil Twilight 5:45 AM CST 5:44 PM CST
Nautical Twilight 5:19 AM CST 6:11 PM CST
Astronomical Twilight 4:52 AM CST 6:37 PM CST
Moon 2:46 AM CST (11/14) 3:09 PM CST (11/14)
Length of Visible Light 11h 58m
Length of Day
11h 12m
Waning Crescent, 14% of the Moon is Illuminated
Nov 14
Waning Crescent
Nov 18
New
Nov 26
First Quarter
Dec 3
Full
Dec 10
Last Quarter

Hourly Weather History & Observations

Time (CST) Temp. Heat Index Dew Point Humidity Pressure Visibility Wind Dir Wind Speed Gust Speed Precip Events Conditions
12:13 AM 78.1 °F - 78.1 °F 100% 29.85 in 6.2 mi ENE 4.6 mph - 0.00 in Rain Light Rain
12:56 AM 75.0 °F - 75.0 °F 100% 29.86 in - SE 19.6 mph 29.9 mph 0.46 in Rain Heavy Rain
1:56 AM 73.9 °F - 73.9 °F 100% 29.83 in 6.2 mi NNW 3.5 mph - 0.67 in Rain Light Rain
2:56 AM 73.9 °F - 73.9 °F 100% 29.82 in 6.2 mi North 6.9 mph - 0.01 in Rain Light Rain
3:56 AM 73.9 °F - 73.9 °F 100% 29.81 in 6.2 mi NNW 8.1 mph - 0.00 in Rain Light Rain
4:56 AM 73.0 °F - 73.0 °F 100% 29.81 in 6.2 mi North 9.2 mph - 0.01 in   Mostly Cloudy
5:56 AM 73.0 °F - 73.0 °F 100% 29.82 in 6.2 mi NNW 9.2 mph - N/A   Mostly Cloudy
6:56 AM 73.0 °F - 73.0 °F 100% 29.85 in 6.2 mi North 6.9 mph - N/A   Mostly Cloudy
7:56 AM 75.0 °F - 73.0 °F 94% 29.87 in 6.2 mi North 5.8 mph - N/A   Mostly Cloudy
8:56 AM 78.1 °F - 75.9 °F 93% 29.87 in 6.2 mi NNW 6.9 mph - N/A   Mostly Cloudy
9:56 AM 78.1 °F - 78.1 °F 100% 29.88 in 6.2 mi Calm Calm - N/A   Mostly Cloudy
10:56 AM 80.1 °F 85.4 °F 75.9 °F 87% 29.86 in 6.2 mi Calm Calm - N/A   Mostly Cloudy
11:56 AM 81.0 °F 87.9 °F 77.0 °F 88% 29.83 in 6.2 mi SSE 12.7 mph - 0.00 in Rain Light Rain
12:56 PM 79.5 °F - 75.9 °F 89% 29.81 in 6.2 mi SSE 4.6 mph - 0.00 in   Mostly Cloudy
1:56 PM 79.0 °F - 75.0 °F 88% 29.78 in 6.2 mi East 3.5 mph - 0.00 in Rain Light Rain
2:56 PM 78.4 °F - 77.0 °F 95% 29.78 in 6.2 mi SSE 4.6 mph - 0.03 in Rain Light Rain
3:01 PM 78.4 °F - 77.0 °F 95% 29.78 in 6.2 mi SSE 4.6 mph - 0.01 in Rain Light Rain
3:56 PM 77.0 °F - 77.0 °F 100% 29.77 in 6.2 mi WNW 4.6 mph - 0.05 in Rain Light Rain
4:38 PM 77.0 °F - 77.0 °F 100% 29.76 in 6.2 mi NNW 6.9 mph - 0.02 in Rain Rain
4:56 PM 75.6 °F - 75.6 °F 100% 29.77 in 6.2 mi North 6.9 mph - 0.05 in Rain Light Rain
5:56 PM 74.8 °F - 74.8 °F 100% 29.78 in 6.2 mi NNW 5.8 mph - 0.02 in Rain Light Rain
6:56 PM 74.5 °F - 74.5 °F 100% 29.79 in 6.2 mi North 8.1 mph - 0.00 in Rain Light Rain
7:56 PM 75.0 °F - 75.0 °F 100% 29.81 in 6.2 mi NNW 8.1 mph - 0.00 in Rain Light Rain
8:56 PM 74.3 °F - 74.3 °F 100% 29.81 in 6.2 mi NNW 8.1 mph - 0.01 in Rain Light Rain
9:56 PM 74.3 °F - 74.3 °F 100% 29.80 in 6.2 mi NW 5.8 mph - 0.01 in Rain Light Rain
10:56 PM 73.9 °F - 73.9 °F 100% 29.81 in 6.2 mi NNW 3.5 mph - 0.00 in Rain Light Rain
11:56 PM 73.9 °F - 73.9 °F 100% 29.81 in 6.2 mi NE 3.5 mph - 0.01 in Rain Light Rain